Change the Weather History Date:

Saturday, July 6, 2013

  Actual Average Record
Temperature  
Mean Temperature 88 °F -  
Max Temperature 100 °F 96 °F 107 °F (1992)
Min Temperature 75 °F 67 °F 58 °F (1983)
Cooling Degree Days 22    
Growing Degree Days 38 (Base 50)    
Moisture  
Dew Point 50 °F    
Average Humidity 29    
Maximum Humidity 43    
Minimum Humidity 17    
Precipitation  
Precipitation 0.00 in - - ()
Sea Level Pressure  
Sea Level Pressure 29.69 in    
Wind  
Wind Speed 14 mph (SE)    
Max Wind Speed 20 mph    
Max Gust Speed 26 mph    
Visibility 10 miles    
Events      
Averages and records for this station are not official NWS values.
T = Trace of Precipitation, MM = Missing Value Source: NWS Daily Summary

Daily Weather History Graph

Daily Weather History Graph

Search for Another Location

Airport or City:

Trip Planner

Search our weather history database for the weather conditions in past years. The results will help you decide how hot, cold, wet, or windy it might be!

Date:

Astronomy

Jul. 06, 2013 Rise Set
Actual Time 5:56 AM MDT 8:07 PM MDT
Civil Twilight 5:28 AM MDT 8:35 PM MDT
Nautical Twilight 4:53 AM MDT 9:09 PM MDT
Astronomical Twilight 4:16 AM MDT 9:46 PM MDT
Moon 4:41 AM MDT (7/6) 6:53 PM MDT (7/6)
Length of Visible Light 15h 07m
Length of Day
14h 11m
Waning Crescent, 2% of the Moon is Illuminated
Jul 6
Waning Crescent
Jul 8
New
Jul 15
First Quarter
Jul 22
Full
Jul 29
Last Quarter

Hourly Weather History & Observations

Time (MDT) Temp. Dew Point Humidity Pressure Visibility Wind Dir Wind Speed Gust Speed Precip Events Conditions
12:53 AM 82.0 °F 50.0 °F 33% 29.73 in 10.0 mi SSE 18.4 mph 25.3 mph N/A   Clear
1:53 AM 81.0 °F 50.0 °F 34% 29.72 in 10.0 mi SSE 15.0 mph - N/A   Clear
2:53 AM 78.1 °F 50.0 °F 37% 29.72 in 10.0 mi SE 9.2 mph - N/A   Clear
3:53 AM 77.0 °F 50.0 °F 39% 29.71 in 10.0 mi SSE 9.2 mph - N/A   Clear
4:53 AM 75.9 °F 51.1 °F 42% 29.70 in 10.0 mi SSE 10.4 mph - N/A   Clear
5:53 AM 75.0 °F 51.1 °F 43% 29.72 in 10.0 mi SSE 11.5 mph - N/A   Clear
6:53 AM 75.0 °F 51.1 °F 43% 29.73 in 10.0 mi SSE 12.7 mph - N/A   Clear
7:53 AM 78.1 °F 51.1 °F 39% 29.74 in 10.0 mi SE 15.0 mph - N/A   Clear
8:53 AM 80.1 °F 51.1 °F 36% 29.75 in 10.0 mi SSE 12.7 mph - N/A   Clear
9:53 AM 84.0 °F 52.0 °F 33% 29.74 in 10.0 mi SE 10.4 mph - N/A   Clear
10:53 AM 87.1 °F 52.0 °F 30% 29.73 in 10.0 mi SE 8.1 mph - N/A   Clear
11:53 AM 91.9 °F 52.0 °F 26% 29.71 in 10.0 mi SSE 9.2 mph - N/A   Clear
12:53 PM 95.0 °F 52.0 °F 23% 29.69 in 10.0 mi SSE 9.2 mph 16.1 mph N/A   Clear
1:53 PM 97.0 °F 51.1 °F 21% 29.66 in 10.0 mi SSE 11.5 mph 17.3 mph N/A   Clear
2:53 PM 100.9 °F 50.0 °F 18% 29.63 in 10.0 mi ESE 13.8 mph 21.9 mph N/A   Clear
3:53 PM 100.9 °F 48.9 °F 17% 29.62 in 10.0 mi SE 11.5 mph 20.7 mph N/A   Clear
4:53 PM 100.9 °F 48.9 °F 17% 29.61 in 10.0 mi SE 15.0 mph 23.0 mph N/A   Clear
5:53 PM 98.1 °F 48.9 °F 19% 29.60 in 7.0 mi SE 17.3 mph 20.7 mph N/A   Clear
6:53 PM 96.1 °F 48.9 °F 20% 29.61 in 10.0 mi ESE 13.8 mph 21.9 mph N/A   Clear
7:53 PM 93.0 °F 48.9 °F 22% 29.65 in 10.0 mi SE 19.6 mph 23.0 mph N/A   Clear
8:53 PM 89.1 °F 51.1 °F 27% 29.67 in 10.0 mi SE 17.3 mph 25.3 mph N/A   Clear
9:53 PM 87.1 °F 50.0 °F 28% 29.72 in 10.0 mi SE 16.1 mph 21.9 mph N/A   Clear
10:53 PM 84.9 °F 46.9 °F 27% 29.74 in 10.0 mi SSE 17.3 mph 26.5 mph N/A   Clear
11:53 PM 82.9 °F 45.0 °F 26% 29.74 in 10.0 mi SSE 13.8 mph 24.2 mph N/A   Clear